Погода в Павлоградке

Россия / Омская область     54°12′12″N   73°33′48″E
темп.,
°C
ветер,
м/с
пор.,
м/с
влажн.,
%
обл.,
%
осадки,
мм/ч
давл.,
гПа
погр.,
м
28 сентября, вт
вт2800:00+4в71369100 0.0 1022702
03:00+4в61266100 0.0 1022697
06:00+4в61169100 0.0 1021699
09:00+5в71060100 0.0 1021949
12:00+8в9114878 0.0 10181363
15:00+10в10124084 0.0 10161676
18:00+9в81143100 0.0 10151574
21:00+6в71163100 1.1 10141098
29 сентября, ср
ср2900:00+4всв61080100 3.0 1014870
03:00+4св61184100 0.6 1012748
06:00+4св71183100 1.1 1013710
09:00+4св6107495 0.2 1013654
12:00+7св675884 0.2 10141277
15:00+8св5651100 0.0 10151388
18:00+7ссв575399 0.1 1016854
21:00+5с3765100 0.0 1017201
30 сентября, чт
чт3000:00+4с357549 0.0 1017108
03:00+3ссз3683100 0.0 1017173
06:00+3ссз3788100 0.0 1018229
09:00+3ссз468499 0.0 1019365
12:00+6ссз4565100 0.0 10191087
15:00+6сз5654100 0.0 10191469
18:00+6сз4658100 0.0 1020995
21:00+5сз3662100 0.0 1021675
1 октября, пт
пт100:00+5зсз3664100 0.0 1020425
03:00+4з3766100 0.0 1020183
06:00+1з487266 0.0 1020175
09:00+3з51063100 0.0 1020345
12:00+7зсз7946100 0.0 1020943
15:00+8зсз7946100 0.0 10191608
18:00+4сз5994100 0.1 1021716
21:00+4ссз589083 0.3 1022660
2 октября, сб
сб200:00+1ссз488252 0.4 1024362
03:00−1сз38825 0.0 1025225
06:00−2сз38875 0.0 1027215
09:000ссз478431 0.0 1028367
12:00+3ссз456778 0.0 1030909
15:00+4ссз355459 0.0 10301110
18:00+5сз345377 0.0 1030134
21:00+2з336220 0.0 103133